Location: Starlight Observatory
(38.4029°N, 85.8936°W)
Time: 18:25:59
(UTC-04:00)

Amateur Radio Satellites - All Passes

Search period start: 22 October 2014 17:55
Search period end: 23 October 2014 17:55
Location: Starlight Observatory, 38.4029°N, 85.8936°W

Satellite Date Start Highest point End Downlink Frequencies (MHz)
Time Altitude Azimuth
JAS-2 22 Oct 18:06:39 18:12:14 54° 70° (ENE) 18:18:35 435.800 - 435.900 CW/SSB, 435.910 FM
Hamsat 22 Oct 18:08:12 18:11:52 30° 71° (ENE) 18:15:32 145.90 MHz
UOSAT-12 22 Oct 18:16:10 18:17:17 11° 322° (NW) 18:18:25 437.025 FM, 437.400 FM
Saudisat 1A 22 Oct 18:21:19 18:25:45 82° 240° (WSW) 18:30:10 436.775 MHz
OPAL 22 Oct 18:25:41 18:30:09 33° 99° (E) 18:34:34 ?
Uosat F 22 Oct 18:31:38 18:35:13 20° 266° (W) 18:38:50 435.120 FM
AO-7 22 Oct 19:23:10 19:25:51 12° 271° (W) 19:28:33 29.400 - 29.500 MHz
AO-40 22 Oct 19:30:14 01:41:54 47° 182° (S) 06:00:54 Beacon 2401.320
SO-67 22 Oct 19:32:09 19:35:09 29° 73° (ENE) 19:38:10 435.3500 MHz FM
ISS 22 Oct 19:41:20 19:43:23 15° 21° (NNE) 19:45:26 145.800 FM
Hamsat 22 Oct 19:44:40 19:47:49 20° 266° (W) 19:50:59 145.90 MHz
JAS-2 22 Oct 19:53:38 19:57:50 20° 271° (W) 20:02:23 435.800 - 435.900 CW/SSB, 435.910 FM
KITSAT 1 22 Oct 20:03:24 20:05:47 11° 24° (NNE) 20:08:09 435.175 FM
OPAL 22 Oct 20:04:47 20:08:53 26° 295° (WNW) 20:12:57 ?
STRAND 1 22 Oct 20:05:49 20:10:38 39° 98° (E) 20:15:25 ?
HO-68 22 Oct 20:48:29 20:54:37 32° 63° (ENE) 21:00:47 435.675 MHz FM
SO-67 22 Oct 21:06:28 21:08:11 13° 267° (W) 21:09:55 435.3500 MHz FM
ISS 22 Oct 21:17:11 21:20:32 78° 39° (NE) 21:23:52 145.800 FM
STRAND 1 22 Oct 21:45:31 21:49:34 24° 294° (WNW) 21:53:36 ?
SO-50 22 Oct 21:48:07 21:50:09 12° 40° (NE) 21:52:11 436.795 FM
Oscar 11 22 Oct 21:50:43 21:54:06 23° 69° (ENE) 21:57:30 145.825 FM, Beacon 2401.500 USB
KITSAT 1 22 Oct 21:56:26 22:03:54 39° 50° (NE) 22:11:19 435.175 FM
ZACube-1 22 Oct 22:32:40 22:36:38 29° 70° (ENE) 22:40:33 437.345 MHz
HO-68 22 Oct 22:35:13 22:42:02 47° 260° (W) 22:48:56 435.675 MHz FM
UKube-1 22 Oct 22:41:56 22:46:16 80° 257° (WSW) 22:50:39 145.840 MHz, 145.915 MHz
RS-15 22 Oct 22:48:28 22:58:45 47° 110° (ESE) 23:08:54 29.354 - 29.394 USB, Beacon 29.352 USB
FUNcube-1 22 Oct 23:17:14 23:21:50 89° 77° (ENE) 23:26:25 145.950 - 145.970 MHz USB
UOSAT-12 22 Oct 23:25:30 23:26:21 10° 38° (NE) 23:27:13 437.025 FM, 437.400 FM
Oscar 11 22 Oct 23:26:22 23:30:07 29° 264° (W) 23:33:54 145.825 FM, Beacon 2401.500 USB
SO-50 22 Oct 23:26:37 23:31:29 79° 59° (ENE) 23:36:22 436.795 FM
KITSAT 1 22 Oct 23:51:46 23:59:25 49° 249° (WSW) 00:07:02 435.175 FM
ZACube-1 23 Oct 00:09:10 00:12:58 25° 265° (W) 00:16:45 437.345 MHz
MaSat-1 23 Oct 00:30:30 00:34:10 28° 109° (ESE) 00:37:35 437.345 MHz
RS-15 23 Oct 01:00:27 01:10:58 50° 311° (NW) 01:21:32 29.354 - 29.394 USB, Beacon 29.352 USB
UOSAT-12 23 Oct 01:02:43 01:07:25 66° 57° (ENE) 01:12:02 437.025 FM, 437.400 FM
SO-50 23 Oct 01:09:56 01:11:23 11° 254° (WSW) 01:12:51 436.795 FM
MaSat-1 23 Oct 02:06:30 02:09:50 23° 301° (WNW) 02:12:56 437.345 MHz
Oscar 19 23 Oct 02:20:52 02:24:40 21° 94° (E) 02:28:26 437.125 CW, 437.150 USB
AO-27 23 Oct 02:35:38 02:36:40 11° 89° (E) 02:37:42 436.795 MHz FM
UOSAT-12 23 Oct 02:44:58 02:46:57 13° 253° (WSW) 02:48:55 437.025 FM, 437.400 FM
Oscar 16 23 Oct 03:05:18 03:10:22 59° 101° (E) 03:15:24 437.025 USB, Beacon 2401.1428
JAS-1B 23 Oct 03:06:13 03:12:44 53° 101° (ESE) 03:20:29 435.800 - 435.900 CW/SSB
AO-Echo 23 Oct 03:17:29 03:22:29 41° 98° (E) 03:27:27 ?
RS-15 23 Oct 03:19:51 03:26:57 19° 342° (NNW) 03:34:07 29.354 - 29.394 USB, Beacon 29.352 USB
Uribyol 2 23 Oct 03:21:18 03:26:02 34° 97° (E) 03:30:43 436.500 FM
ITAMSAT 1 23 Oct 03:26:44 03:31:32 36° 98° (E) 03:36:18 435.822 SSB
Gurwin Techsat 1B 23 Oct 03:34:40 03:38:49 23° 94° (E) 03:42:56 435.225 FM
TMSAT-1 23 Oct 03:47:21 03:51:25 22° 94° (E) 03:55:27 436.925 FM
Oscar 19 23 Oct 03:59:21 04:04:09 42° 289° (WNW) 04:08:56 437.125 CW, 437.150 USB
AO-27 23 Oct 04:11:30 04:16:45 82° 285° (WNW) 04:21:58 436.795 MHz FM
Sapphire 23 Oct 04:42:13 04:47:09 37° 110° (ESE) 04:52:06 437.095 MHz 1200 baud AX-25 AFSK
Oscar 16 23 Oct 04:46:07 04:49:12 16° 297° (WNW) 04:52:16 437.025 USB, Beacon 2401.1428
AO-Echo 23 Oct 04:56:45 05:00:58 25° 294° (WNW) 05:05:11 ?
JAS-1B 23 Oct 04:57:44 05:03:08 28° 294° (WNW) 05:09:16 435.800 - 435.900 CW/SSB
Uribyol 2 23 Oct 05:01:00 05:05:21 27° 293° (WNW) 05:09:39 436.500 FM
Uosat F 23 Oct 05:02:08 05:05:00 15° 92° (E) 05:07:51 435.120 FM
PCSat 23 Oct 05:04:29 05:09:50 66° 114° (ESE) 05:15:13 145.825 MHz
ITAMSAT 1 23 Oct 05:06:34 05:10:50 26° 294° (WNW) 05:15:04 435.822 SSB
Gurwin Techsat 1B 23 Oct 05:13:56 05:18:54 41° 290° (WNW) 05:23:51 435.225 FM
TMSAT-1 23 Oct 05:26:29 05:31:29 43° 289° (WNW) 05:36:26 436.925 FM
AO-7 23 Oct 05:27:01 05:34:49 42° 100° (E) 05:42:34 29.400 - 29.500 MHz
RS-15 23 Oct 05:38:05 05:45:28 19° 20° (NNE) 05:52:59 29.354 - 29.394 USB, Beacon 29.352 USB
OPAL 23 Oct 05:38:51 05:43:52 53° 70° (ENE) 05:48:50 ?
Sapphire 23 Oct 06:25:54 06:30:36 30° 307° (NW) 06:35:20 437.095 MHz 1200 baud AX-25 AFSK
Uosat F 23 Oct 06:39:09 06:44:07 57° 287° (WNW) 06:49:02 435.120 FM
PCSat 23 Oct 06:49:56 06:53:43 19° 313° (NW) 06:57:33 145.825 MHz
JAS-2 23 Oct 07:01:05 07:08:48 63° 101° (E) 07:16:30 435.800 - 435.900 CW/SSB, 435.910 FM
OPAL 23 Oct 07:19:38 07:22:59 17° 265° (W) 07:26:20 ?
AO-7 23 Oct 07:19:53 07:27:30 42° 297° (WNW) 07:35:09 29.400 - 29.500 MHz
STRAND 1 23 Oct 07:20:12 07:25:07 49° 72° (ENE) 07:30:03 ?
Hamsat 23 Oct 07:30:23 07:34:35 76° 102° (ESE) 07:38:47 145.90 MHz
RS-15 23 Oct 07:50:31 08:01:20 52° 50° (NE) 08:12:34 29.354 - 29.394 USB, Beacon 29.352 USB
Saudisat 1A 23 Oct 08:26:25 08:30:25 36° 115° (ESE) 08:34:27 436.775 MHz
SO-67 23 Oct 08:29:16 08:32:34 42° 99° (E) 08:35:50 435.3500 MHz FM
JAS-2 23 Oct 08:46:57 08:53:14 28° 297° (WNW) 08:59:36 435.800 - 435.900 CW/SSB, 435.910 FM
STRAND 1 23 Oct 09:01:04 09:04:32 18° 267° (W) 09:08:02 ?
RS-15 23 Oct 10:03:09 10:13:35 47° 251° (WSW) 10:24:29 29.354 - 29.394 USB, Beacon 29.352 USB
HO-68 23 Oct 10:04:25 10:11:00 37° 98° (E) 10:17:31 435.675 MHz FM
Saudisat 1A 23 Oct 10:06:31 10:10:04 23° 311° (NW) 10:13:38 436.775 MHz
PANSAT 23 Oct 10:15:05 10:17:40 17° 175° (S) 10:20:16 not established
MaSat-1 23 Oct 10:18:24 10:20:34 22° 59° (ENE) 10:22:36 437.345 MHz
UKube-1 23 Oct 10:32:31 10:35:40 19° 94° (E) 10:38:47 145.840 MHz, 145.915 MHz
FUNcube-1 23 Oct 11:09:08 11:12:04 18° 93° (E) 11:14:58 145.950 - 145.970 MHz USB
Oscar 11 23 Oct 11:14:46 11:19:00 55° 100° (E) 11:23:12 145.825 FM, Beacon 2401.500 USB
HO-68 23 Oct 11:52:04 11:58:39 40° 295° (WNW) 12:05:13 435.675 MHz FM
PANSAT 23 Oct 11:54:44 11:57:13 17° 188° (S) 11:59:42 not established
ZACube-1 23 Oct 11:59:10 12:03:27 72° 102° (ESE) 12:07:36 437.345 MHz
UKube-1 23 Oct 12:07:57 12:11:55 34° 290° (WNW) 12:15:51 145.840 MHz, 145.915 MHz
KITSAT 1 23 Oct 12:23:53 12:30:37 30° 106° (ESE) 12:37:21 435.175 FM
FUNcube-1 23 Oct 12:44:43 12:48:33 33° 289° (WNW) 12:52:18 145.950 - 145.970 MHz USB
Oscar 11 23 Oct 12:52:48 12:54:41 13° 296° (WNW) 12:56:34 145.825 FM, Beacon 2401.500 USB
Sapphire 23 Oct 13:31:45 13:36:08 24° 50° (NE) 13:40:30 437.095 MHz 1200 baud AX-25 AFSK
Oscar 19 23 Oct 13:36:16 13:40:32 27° 67° (ENE) 13:44:48 437.125 CW, 437.150 USB
SO-50 23 Oct 13:40:29 13:44:32 35° 114° (ESE) 13:48:41 436.795 FM
AO-27 23 Oct 13:51:20 13:54:24 16° 62° (ENE) 13:57:29 436.795 MHz FM
JAS-1B 23 Oct 13:52:05 13:57:24 34° 68° (ENE) 14:02:26 435.800 - 435.900 CW/SSB
PCSat 23 Oct 13:54:05 13:59:09 38° 55° (NE) 14:04:10 145.825 MHz
ISS 23 Oct 13:58:05 14:01:21 58° 138° (SE) 14:04:39 145.800 FM
Oscar 10/S400 23 Oct 14:08:06 14:27:04 38° 153° (SSE) 14:46:59 145.825 - 145.975 CW/USB, Beacon 145.810 USB
KITSAT 1 23 Oct 14:17:36 14:25:31 58° 304° (NW) 14:33:30 435.175 FM
Oscar 16 23 Oct 14:20:41 14:25:50 74° 75° (ENE) 14:30:59 437.025 USB, Beacon 2401.1428
AO-Echo 23 Oct 14:29:05 14:33:38 42° 71° (ENE) 14:38:21 ?
Uribyol 2 23 Oct 14:37:37 14:42:33 45° 71° (ENE) 14:47:31 436.500 FM
AO-7 23 Oct 14:41:11 14:41:20 10° 44° (NE) 14:41:28 29.400 - 29.500 MHz
ITAMSAT 1 23 Oct 14:43:11 14:48:09 48° 71° (ENE) 14:53:10 435.822 SSB
Gurwin Techsat 1B 23 Oct 14:54:14 14:58:52 32° 68° (ENE) 15:03:30 435.225 FM
TMSAT-1 23 Oct 15:06:35 15:11:08 30° 68° (ENE) 15:15:43 436.925 FM
UOSAT-12 23 Oct 15:12:56 15:16:50 28° 112° (ESE) 15:20:49 437.025 FM, 437.400 FM
Sapphire 23 Oct 15:14:35 15:19:48 48° 248° (WSW) 15:24:59 437.095 MHz 1200 baud AX-25 AFSK
Oscar 19 23 Oct 15:15:04 15:19:43 34° 263° (W) 15:24:23 437.125 CW, 437.150 USB
SO-50 23 Oct 15:21:22 15:25:08 25° 312° (NW) 15:28:59 436.795 FM
AO-27 23 Oct 15:28:13 15:33:22 63° 258° (WSW) 15:38:33 436.795 MHz FM
ISS 23 Oct 15:35:45 15:38:17 20° 335° (NNW) 15:40:50 145.800 FM
PCSat 23 Oct 15:37:49 15:42:22 28° 252° (WSW) 15:46:53 145.825 MHz
JAS-1B 23 Oct 15:42:53 15:48:07 29° 263° (W) 15:53:02 435.800 - 435.900 CW/SSB
Oscar 16 23 Oct 16:03:55 16:05:40 12° 270° (W) 16:07:26 437.025 USB, Beacon 2401.1428
AO-Echo 23 Oct 16:09:08 16:12:36 19° 267° (W) 16:16:09 ?
Uosat F 23 Oct 16:13:58 16:17:27 19° 64° (ENE) 16:20:56 435.120 FM
KITSAT 1 23 Oct 16:18:18 16:22:51 16° 328° (NNW) 16:27:25 435.175 FM
Uribyol 2 23 Oct 16:18:24 16:22:12 20° 266° (W) 16:26:02 436.500 FM
ITAMSAT 1 23 Oct 16:24:14 16:27:52 19° 267° (W) 16:31:33 435.822 SSB
AO-7 23 Oct 16:24:17 16:32:09 51° 65° (ENE) 16:40:02 29.400 - 29.500 MHz
Gurwin Techsat 1B 23 Oct 16:34:08 16:38:45 30° 264° (W) 16:43:24 435.225 FM
TMSAT-1 23 Oct 16:46:17 16:50:57 31° 264° (W) 16:55:39 436.925 FM
UOSAT-12 23 Oct 16:52:42 16:56:52 32° 309° (NW) 17:01:07 437.025 FM, 437.400 FM
Saudisat 1A 23 Oct 16:54:38 16:58:04 22° 48° (NE) 17:01:29 436.775 MHz
JAS-2 23 Oct 17:13:34 17:17:54 21° 60° (ENE) 17:22:35 435.800 - 435.900 CW/SSB, 435.910 FM
